sat.trackr.live / text

‹ back to catalog

HORUS 2

NORAD 55844 · 2023-032A

PAYLOAD ACTIVE UNKNOWN

§ Identity

Operator
Country
EGYP
Launch date
2023-03-13
Launch site
JSC
Launch vehicle
Mass (kg)
RCS (m²)

External: N2YO · Heavens-Above · Gunter

§ Orbital elements

Epoch: 2026-05-25T04:46:34.589280Z

Period
94.52 min
Inclination
97.3536°
Eccentricity
0.0003311
Mean motion
15.23501551 rev/d
Perigee alt
493.0 km
Apogee alt
497.6 km
Semi-major
6,873.4 km
B*
2.5125e-4
RAAN
221.0598°
Arg perigee
123.0666°
Mean anomaly
237.0889°
Rev number
17,798

§ Raw data

HORUS 21 55844U 23032A   26145.19901145  .00005927  00000+0  25125-3 0  99942 55844  97.3536 221.0598 0003311 123.0666 237.0889 15.23501551177987

JSON: /api/v1/satellites/55844 · /tle

For live sub-satellite position, see the globe view (requires WebGL).

§ Visibility from observer

Set your observer location to see the next 7 days of passes ≥ 10°. The values pass through the URL so the page stays shareable.

No JS? Fill the form by hand. The geolocation button needs JavaScript.

§ Radio — SatNOGS DB

ModeDescriptionDownlinkUplink
FM S-band telemetry 2.262 GHz

1 transmitter · refreshed weekly from db.satnogs.org